Regional Weather Roundup
Issued by NWS

Home | Current Version | Previous Version | Graphics & Text | Print | Product List | Glossary On
Versions: 1 2 3 4 5 6 7 8 9 10 11 12 13 14 15 16 17 18 19 20 21 22 23 24 25 26 27 28 29 30 31 32 33 34 35 36 37 38 39 40 41 42 43 44 45 46 47 48 49 50
000
ASUS43 KBIS 151610
RWRND

NORTH DAKOTA REGIONAL WEATHER ROUNDUP
NATIONAL WEATHER SERVICE BISMARCK ND
1100 AM CDT TUE APR 15 2014

NOTE: "FAIR" INDICATES FEW OR NO CLOUDS BELOW 12,000 FEET WITH NO
SIGNIFICANT WEATHER AND/OR OBSTRUCTIONS TO VISIBILITY.


NDZ001>003-009>011-017-151700-
NORTHWEST NORTH DAKOTA

CITY           SKY/WX    TMP DP  RH WIND       PRES   REMARKS
WILLISTON      PTSUNNY   32  13  45 SE16G23   29.73F
MINOT          CLOUDY    30  10  43 SE21      29.89F WCI  17
MINOT AFB      CLOUDY    30  10  44 SE20G25   29.88F WCI  17
$$

NDZ018>021-031>035-040>046-151700-
SOUTHWEST NORTH DAKOTA

CITY           SKY/WX    TMP DP  RH WIND       PRES   REMARKS
BISMARCK       CLOUDY    31  13  47 S16       29.92F WCI  20
DICKINSON      CLOUDY    34  15  46 S24G32    29.70F
GARRISON         N/A     28  15  58 SE18      29.87F WCI  15
HETTINGER ARPT PTSUNNY   34  16  47 SE14G24   29.76F
$$

NDZ004>008-012>016-024-026-027-054-151700-
NORTHEAST NORTH DAKOTA

CITY           SKY/WX    TMP DP  RH WIND       PRES   REMARKS
GRAND FORKS    MOSUNNY   22   6  50 S7        30.09F WCI  13
GRND FRKS AFB  SUNNY     24   7  49 S7        30.11F WCI  16
DEVILS LAKE    SUNNY     25   9  50 S13       30.02S WCI  13
$$

NDZ022-023-025-028>030-036>039-047>053-151700-
SOUTHEAST NORTH DAKOTA

CITY           SKY/WX    TMP DP  RH WIND       PRES   REMARKS
FARGO          SUNNY     25   4  40 CALM      30.13F
JAMESTOWN      PTSUNNY   26  11  52 SE16      30.02F WCI  14
$$




USA.gov is the U.S. government's official web portal to all federal, state and local government web resources and services.